Regional Weather Roundup
Issued by NWS Goodland, KS

Home | Current Version | Previous Version | Text Only | Print | Product List | Glossary On
Versions: 1 2 3 4 5 6 7 8 9 10 11 12 13 14 15 16 17 18 19 20 21 22 23 24 25 26 27 28 29 30 31 32 33 34 35 36 37 38 39 40 41 42 43 44 45 46 47 48 49 50
000
ASUS43 KGLD 292008
RWRGLD

GOODLAND FORECAST AREA HOURLY WEATHER ROUNDUP
NATIONAL WEATHER SERVICE GOODLAND KS
200 PM MDT WED MAR 29 2017

...OFFICIAL OBSERVATIONS...

CITY           SKY/WX    TMP DP  RH WIND       PRES   REMARKS
GOODLAND KS    CLOUDY    42  39  89 N22G30    29.92F
HILL CITY KS   LGT RAIN  44  41  89 N26G35    29.87S FOG
IMPERIAL NEB   CLOUDY    46  39  76 N21       29.96F
MCCOOK NEB     LGT RAIN  45  42  89 N24G31    29.91F
AKRON CO       CLOUDY    47  36  65 N21G26    29.99F
BURLINGTON CO  CLOUDY    43  39  86 N25G32    29.95F
LIMON CO       CLOUDY    44  36  73 N22G32    29.98F
$$

...UNOFFICIAL OBSERVATIONS...

CITY           SKY/WX    TMP DP  RH WIND       PRES   REMARKS
NORTON KS      LGT RAIN  41  37  87 N17G26    29.86F
SHARON SPRINGS   N/A     42  40  94 N20G26      N/A
TRENTON NEB      N/A     45  32  60 N14         N/A
KIT CARSON CO    N/A     42  37  83 MISG        N/A
YUMA CO        CLOUDY    43  36  75 N16G22    29.98F
$$




USA.gov is the U.S. government's official web portal to all federal, state and local government web resources and services.